Flag for Chile Weather past 2 weeks in Viña del Mar, Chile

Now
54 °F

Clear.


Feels Like: 53 °F
Forecast: 58 / 73 °F
Wind: 3 mph from Southeast

Location: Pudahuel

Current Time: Dec 22, 2014 at 2:41:44 AM

Latest Report: Dec 22, 2014 at 2:00 AM


Visibility: 10 mi

Pressure: 30.15 "Hg

Humidity: 58%

Dew point: 39 °F

Location of Viña del MarLocation

Historic Weather in Viña del Mar — Graph

°F

Viña del Mar temperature yesterday

Maximum temperature yesterday: 72 °F (at 6:00 PM)
Minimum temperature yesterday: 54 °F (at 1:00 AM)
Average temperature yesterday: 60 °F

Past Weeks' High & Low Weather Summary

 TemperatureHumidityPressure
High86 °F (Dec 7, 4:00 PM)88% (Dec 9, 5:00 AM)30.15 "Hg (Dec 9, 5:00 AM)
Low48 °F (Dec 15, 6:00 AM)19% (Dec 7, 3:00 PM)29.77 "Hg (Dec 8, 6:00 PM)
Average66 °F52%29.98 "Hg
* Reported Dec 7 1:00 AM — Dec 22 1:00 AM, Viña del Mar, Weather by CustomWeather, © 2014

Note: Actual official high and low records may vary slightly from our data, if they occured in-between our weather recording intervals... More about our weather records

Advertising

Viña del Mar weather history for previous 24 hours

 ConditionsComfort  
Time TempWeatherWind HumidityBarometerVisibility
1:00 AM
Dec 22
57 °FClear.2 mph51%30.15 "Hg10 mi
12:00 AM59 °FClear.8 mph48%30.15 "Hg10 mi
11:00 PM
Dec 21
61 °FClear.12 mph45%30.15 "Hg10 mi
10:00 PM63 °FClear.10 mph39%30.12 "Hg10 mi
9:00 PM64 °FClear.14 mph37%30.09 "Hg10 mi
8:00 PM66 °FPassing clouds.17 mph35%30.09 "HgN/A
7:00 PM70 °FPassing clouds.14 mph31%30.07 "HgN/A
6:00 PM72 °FScattered clouds.15 mph27%30.07 "HgN/A
5:00 PM70 °FPassing clouds.8 mph29%30.07 "HgN/A
4:00 PM70 °FPassing clouds.9 mph29%30.07 "HgN/A
3:00 PM68 °FPassing clouds.10 mph33%30.07 "HgN/A
2:00 PM64 °FScattered clouds.7 mph46%30.07 "HgN/A
1:00 PM63 °FBroken clouds.8 mph56%30.09 "HgN/A
12:00 PM59 °FPartly sunny.12 mph63%30.09 "HgN/A
11:00 AM57 °FBroken clouds.7 mph77%30.07 "HgN/A
10:00 AM55 °FPartly sunny.5 mph77%30.07 "HgN/A
9:00 AM54 °FPartly sunny.7 mph82%30.07 "HgN/A
8:00 AM54 °FLow clouds.7 mph82%30.07 "HgN/A
7:00 AM54 °FOvercast.7 mph82%30.04 "HgN/A
6:00 AM54 °FOvercast.6 mph82%30.04 "HgN/A
5:00 AM54 °FOvercast.7 mph82%30.04 "HgN/A
4:00 AM54 °FPassing clouds.8 mph82%30.04 "HgN/A
3:00 AM54 °FPassing clouds.7 mph82%30.04 "HgN/A
2:00 AM54 °FPartly cloudy.7 mph88%30.07 "HgN/A
Weather by CustomWeather, © 2014

See weather overviewHow to use our weather pages